BAW301H RPMD-PGUM

Flight info

Callsign BAW301H
Flight time N/A
Altitude 41000
Route DAPEL1A DAPEL DCT OLBIE M756 AIBIE DCT ROR DCT PIGFA A450 BUCAT DCT OBALE
Aircraft B748/H-SDE3FGHIM1M2RWXY/LB1

Departure

Time N/A
Airport Francisco Bangoy International Airport (RPMD)

Arrival

Time 2026-05-06 06:01
Airport Antonio B. Won Pat International Airport (PGUM)
Time Latitude Longitude Altitude Speed Heading
2026-05-06 04:18 7.35780 134.02153 40822 ft 477 kts 89°
2026-05-06 04:18 7.35880 134.07577 40829 ft 478 kts 89°
2026-05-06 04:19 7.35919 134.09700 40822 ft 480 kts 89°
2026-05-06 04:20 7.35995 134.13705 40816 ft 474 kts 89°
2026-05-06 04:20 7.36122 134.20389 40818 ft 478 kts 89°
2026-05-06 04:21 7.36252 134.27060 40829 ft 479 kts 89°
2026-05-06 04:21 7.36385 134.33756 40829 ft 479 kts 89°
2026-05-06 04:22 7.36521 134.40440 40820 ft 477 kts 89°
2026-05-06 04:23 7.37028 134.50450 40830 ft 477 kts 82°
2026-05-06 04:23 7.38638 134.56969 40823 ft 477 kts 71°
2026-05-06 04:24 7.41419 134.63048 40835 ft 480 kts 62°
2026-05-06 04:24 7.44639 134.68846 40842 ft 480 kts 61°
2026-05-06 04:25 7.47918 134.74703 40832 ft 478 kts 62°
2026-05-06 04:25 7.51197 134.80574 40831 ft 479 kts 61°
2026-05-06 04:26 7.54464 134.86418 40817 ft 481 kts 62°
2026-05-06 04:26 7.57743 134.92279 40821 ft 479 kts 61°
2026-05-06 04:27 7.61027 134.98148 40817 ft 480 kts 61°
2026-05-06 04:27 7.64282 135.03963 40811 ft 481 kts 61°
2026-05-06 04:28 7.67574 135.09847 40813 ft 480 kts 61°
2026-05-06 04:28 7.70852 135.15704 40819 ft 481 kts 61°
2026-05-06 04:29 7.74118 135.21542 40825 ft 482 kts 61°
2026-05-06 04:29 7.77412 135.27434 40816 ft 480 kts 61°
2026-05-06 04:30 7.80676 135.33275 40822 ft 483 kts 61°
2026-05-06 04:30 7.83951 135.39136 40819 ft 480 kts 61°
2026-05-06 04:31 7.87247 135.45035 40823 ft 480 kts 61°
2026-05-06 04:31 7.90520 135.50897 40820 ft 482 kts 61°
2026-05-06 04:32 7.93785 135.56747 40823 ft 482 kts 61°
2026-05-06 04:32 7.97073 135.62639 40818 ft 480 kts 61°
2026-05-06 04:33 8.00345 135.68507 40820 ft 481 kts 61°
2026-05-06 04:33 8.03619 135.74381 40823 ft 482 kts 61°
2026-05-06 04:34 8.06883 135.80235 40824 ft 480 kts 61°
2026-05-06 04:34 8.10158 135.86118 40822 ft 481 kts 61°
2026-05-06 04:35 8.13439 135.92011 40831 ft 483 kts 62°
2026-05-06 04:35 8.16702 135.97873 40826 ft 479 kts 62°
2026-05-06 04:36 8.19972 136.03752 40835 ft 479 kts 61°
2026-05-06 04:36 8.23228 136.09608 40838 ft 483 kts 61°
2026-05-06 04:37 8.26498 136.15492 40839 ft 481 kts 61°
2026-05-06 04:37 8.29753 136.21350 40832 ft 480 kts 61°
2026-05-06 04:38 8.33038 136.27266 40823 ft 478 kts 61°
2026-05-06 04:38 8.36288 136.33121 40825 ft 482 kts 61°
2026-05-06 04:39 8.39557 136.39011 40829 ft 482 kts 61°
2026-05-06 04:39 8.42814 136.44884 40824 ft 480 kts 61°
2026-05-06 04:40 8.46068 136.50754 40817 ft 478 kts 61°
2026-05-06 04:40 8.49330 136.56641 40817 ft 482 kts 61°
2026-05-06 04:41 8.52594 136.62534 40825 ft 482 kts 61°
2026-05-06 04:41 8.55840 136.68396 40816 ft 479 kts 61°
2026-05-06 04:42 8.59106 136.74298 40818 ft 480 kts 62°
2026-05-06 04:42 8.62365 136.80190 40823 ft 483 kts 62°
2026-05-06 04:43 8.65627 136.86089 40825 ft 480 kts 61°
2026-05-06 04:43 8.68867 136.91951 40816 ft 478 kts 61°
2026-05-06 04:44 8.72120 136.97839 40814 ft 480 kts 61°
2026-05-06 04:44 8.75367 137.03720 40822 ft 482 kts 61°
2026-05-06 04:45 8.78631 137.09633 40827 ft 482 kts 62°
2026-05-06 04:45 8.81881 137.15524 40820 ft 479 kts 62°
2026-05-06 04:46 8.85127 137.21410 40813 ft 478 kts 62°
2026-05-06 04:46 8.88378 137.27310 40820 ft 480 kts 62°
2026-05-06 04:47 8.91619 137.33192 40824 ft 481 kts 62°
2026-05-06 04:47 8.94872 137.39101 40822 ft 480 kts 62°
2026-05-06 04:48 8.98128 137.45016 40812 ft 480 kts 62°
2026-05-06 04:48 9.01374 137.50919 40823 ft 482 kts 62°
2026-05-06 04:49 9.04608 137.56798 40823 ft 480 kts 62°
2026-05-06 04:49 9.07872 137.62738 40823 ft 483 kts 62°
2026-05-06 04:50 9.11100 137.68613 40847 ft 483 kts 62°
2026-05-06 04:50 9.14341 137.74515 40840 ft 480 kts 62°
2026-05-06 04:51 9.17587 137.80428 40840 ft 481 kts 62°
2026-05-06 04:51 9.20832 137.86345 40845 ft 483 kts 62°
2026-05-06 04:52 9.24071 137.92252 40843 ft 482 kts 62°
2026-05-06 04:52 9.27296 137.98137 40832 ft 479 kts 62°
2026-05-06 04:53 9.30551 138.04080 40826 ft 479 kts 62°
2026-05-06 04:53 9.33776 138.09969 40836 ft 483 kts 62°
2026-05-06 04:54 9.37022 138.15901 40839 ft 482 kts 62°
2026-05-06 04:54 9.40261 138.21822 40832 ft 482 kts 62°
2026-05-06 04:55 9.43487 138.27724 40838 ft 482 kts 62°
2026-05-06 04:55 9.46736 138.33667 40832 ft 481 kts 62°
2026-05-06 04:56 9.49959 138.39571 40822 ft 478 kts 62°
2026-05-06 04:56 9.53201 138.45511 40825 ft 483 kts 62°
2026-05-06 04:57 9.56420 138.51410 40817 ft 480 kts 62°
2026-05-06 04:57 9.59676 138.57381 40816 ft 482 kts 62°
2026-05-06 04:58 9.62903 138.63301 40825 ft 485 kts 62°
2026-05-06 04:58 9.66144 138.69249 40832 ft 483 kts 62°
2026-05-06 04:59 9.69370 138.75174 40823 ft 481 kts 62°
2026-05-06 04:59 9.72606 138.81117 40811 ft 481 kts 62°
2026-05-06 05:00 9.75852 138.87087 40817 ft 484 kts 62°
2026-05-06 05:00 9.79066 138.92998 40824 ft 483 kts 62°
2026-05-06 05:01 9.82308 138.98962 40818 ft 480 kts 62°
2026-05-06 05:01 9.85530 139.04895 40816 ft 481 kts 63°
2026-05-06 05:02 9.88777 139.10877 40817 ft 483 kts 62°
2026-05-06 05:02 9.91998 139.16814 40828 ft 486 kts 62°
2026-05-06 05:03 9.95225 139.22763 40833 ft 482 kts 62°
2026-05-06 05:03 9.98443 139.28700 40819 ft 479 kts 62°
2026-05-06 05:04 10.01663 139.34644 40826 ft 481 kts 62°
2026-05-06 05:04 10.04868 139.40564 40829 ft 479 kts 62°
2026-05-06 05:05 10.08104 139.46542 40830 ft 480 kts 62°
2026-05-06 05:05 10.11313 139.52477 40830 ft 482 kts 62°
2026-05-06 05:06 10.14519 139.58409 40837 ft 484 kts 62°
2026-05-06 05:06 10.17744 139.64378 40835 ft 482 kts 63°
2026-05-06 05:07 10.20964 139.70342 40825 ft 480 kts 63°
2026-05-06 05:07 10.24184 139.76309 40826 ft 482 kts 63°
2026-05-06 05:08 10.27374 139.82222 40833 ft 484 kts 63°
2026-05-06 05:08 10.30600 139.88205 40830 ft 480 kts 63°
2026-05-06 05:09 10.33808 139.94159 40826 ft 483 kts 63°
2026-05-06 05:09 10.37038 140.00157 40835 ft 485 kts 63°
2026-05-06 05:10 10.40259 140.06142 40824 ft 482 kts 63°
2026-05-06 05:10 10.43468 140.12106 40820 ft 482 kts 63°
2026-05-06 05:11 10.46684 140.18088 40820 ft 483 kts 63°
2026-05-06 05:11 10.49882 140.24037 40822 ft 482 kts 63°
2026-05-06 05:12 10.53088 140.30008 40826 ft 484 kts 63°
2026-05-06 05:12 10.56300 140.35992 40824 ft 481 kts 63°
2026-05-06 05:13 10.59512 140.41977 40816 ft 480 kts 63°
2026-05-06 05:13 10.62696 140.47917 40815 ft 481 kts 63°
2026-05-06 05:14 10.65893 140.53882 40823 ft 484 kts 63°
2026-05-06 05:14 10.69089 140.59850 40828 ft 482 kts 63°
2026-05-06 05:15 10.72287 140.65823 40819 ft 480 kts 63°
2026-05-06 05:15 10.75491 140.71812 40823 ft 483 kts 63°
2026-05-06 05:16 10.78670 140.77756 40824 ft 481 kts 63°
2026-05-06 05:16 10.81909 140.83748 40818 ft 480 kts 62°
2026-05-06 05:17 10.85099 140.89670 40826 ft 482 kts 61°
2026-05-06 05:17 10.88293 140.95624 40826 ft 482 kts 62°
2026-05-06 05:18 10.91495 141.01610 40822 ft 479 kts 62°
2026-05-06 05:18 10.94676 141.07571 40823 ft 481 kts 62°
2026-05-06 05:19 10.97876 141.13574 40838 ft 482 kts 62°
2026-05-06 05:19 11.01051 141.19540 40841 ft 480 kts 62°
2026-05-06 05:20 11.04233 141.25528 40838 ft 483 kts 62°
2026-05-06 05:20 11.07408 141.31509 40850 ft 482 kts 62°
2026-05-06 05:21 11.10592 141.37523 40838 ft 482 kts 62°
2026-05-06 05:21 11.14265 141.43224 40849 ft 484 kts 51°
2026-05-06 05:22 11.18703 141.48352 40845 ft 483 kts 47°
2026-05-06 05:22 11.23296 141.53305 40834 ft 482 kts 47°
2026-05-06 05:23 11.27817 141.58354 40846 ft 485 kts 48°
2026-05-06 05:23 11.30005 141.60822 40837 ft 484 kts 48°
2026-05-06 05:24 11.33545 141.64813 40847 ft 485 kts 48°
2026-05-06 05:25 11.38041 141.69884 40837 ft 482 kts 48°
2026-05-06 05:25 11.41227 141.73482 40827 ft 482 kts 48°
2026-05-06 05:26 11.45575 141.78392 40838 ft 487 kts 48°
2026-05-06 05:27 11.50089 141.83496 40841 ft 486 kts 48°
2026-05-06 05:27 11.54618 141.88620 40833 ft 485 kts 48°
2026-05-06 05:28 11.59150 141.93751 40832 ft 487 kts 48°
2026-05-06 05:28 11.63672 141.98875 40841 ft 489 kts 48°
2026-05-06 05:29 11.68179 142.03986 40836 ft 486 kts 48°
2026-05-06 05:29 11.72723 142.09140 40838 ft 490 kts 48°
2026-05-06 05:30 11.77248 142.14276 40846 ft 490 kts 48°
2026-05-06 05:30 11.81827 142.19476 40828 ft 489 kts 48°
2026-05-06 05:31 11.86384 142.24654 40829 ft 489 kts 48°
2026-05-06 05:31 11.90933 142.29826 40841 ft 493 kts 48°
2026-05-06 05:32 11.95474 142.34994 40853 ft 492 kts 48°
2026-05-06 05:32 12.00026 142.40176 40839 ft 489 kts 48°
2026-05-06 05:33 12.04588 142.45373 40838 ft 491 kts 48°
2026-05-06 05:33 12.06860 142.47960 40266 ft 495 kts 48°
2026-05-06 05:33 12.09168 142.50592 39551 ft 492 kts 48°
2026-05-06 05:34 12.11456 142.53201 38875 ft 493 kts 49°
2026-05-06 05:34 12.13732 142.55794 38237 ft 496 kts 49°
2026-05-06 05:34 12.14794 142.57004 37959 ft 496 kts 49°
2026-05-06 05:34 12.14928 142.57156 37924 ft 496 kts 49°
2026-05-06 05:35 12.17216 142.59769 37328 ft 499 kts 49°
2026-05-06 05:35 12.19516 142.62398 36734 ft 499 kts 48°
2026-05-06 05:35 12.21817 142.65047 36139 ft 500 kts 49°
2026-05-06 05:35 12.24116 142.67743 35532 ft 502 kts 52°
2026-05-06 05:36 12.26109 142.70686 34945 ft 501 kts 57°
2026-05-06 05:36 12.27949 142.73686 34377 ft 504 kts 58°
2026-05-06 05:36 12.29753 142.76784 33787 ft 505 kts 59°
2026-05-06 05:36 12.31497 142.79895 33208 ft 508 kts 60°
2026-05-06 05:37 12.33288 142.83034 32626 ft 511 kts 58°
2026-05-06 05:37 12.35124 142.86108 32098 ft 513 kts 57°
2026-05-06 05:37 12.37010 142.89233 31576 ft 514 kts 57°
2026-05-06 05:37 12.38879 142.92329 31060 ft 515 kts 57°
2026-05-06 05:38 12.40766 142.95465 30539 ft 516 kts 58°
2026-05-06 05:38 12.42623 142.98564 30024 ft 517 kts 57°
2026-05-06 05:38 12.44505 143.01706 29506 ft 519 kts 57°
2026-05-06 05:38 12.46395 143.04868 28979 ft 515 kts 57°
2026-05-06 05:39 12.48238 143.07956 28462 ft 509 kts 58°
2026-05-06 05:39 12.50063 143.11020 27973 ft 503 kts 58°
2026-05-06 05:39 12.51868 143.14053 27491 ft 499 kts 58°
2026-05-06 05:39 12.53658 143.17064 27014 ft 495 kts 58°
2026-05-06 05:40 12.55436 143.20056 26540 ft 491 kts 58°
2026-05-06 05:40 12.57190 143.23016 26070 ft 487 kts 58°
2026-05-06 05:40 12.58932 143.25964 25603 ft 483 kts 58°
2026-05-06 05:40 12.60669 143.28886 25138 ft 479 kts 57°
2026-05-06 05:41 12.62425 143.31770 24674 ft 476 kts 57°
2026-05-06 05:41 12.64168 143.34624 24217 ft 473 kts 57°
2026-05-06 05:41 12.65901 143.37462 23759 ft 470 kts 57°
2026-05-06 05:41 12.67643 143.40321 23304 ft 466 kts 57°
2026-05-06 05:42 12.69347 143.43118 22860 ft 462 kts 58°
2026-05-06 05:42 12.71033 143.45888 22421 ft 458 kts 58°
2026-05-06 05:42 12.72704 143.48636 21985 ft 454 kts 58°
2026-05-06 05:42 12.74356 143.51356 21558 ft 450 kts 58°
2026-05-06 05:43 12.75996 143.54057 21134 ft 446 kts 58°
2026-05-06 05:43 12.77620 143.56735 20713 ft 442 kts 58°
2026-05-06 05:43 12.79233 143.59398 20292 ft 438 kts 58°
2026-05-06 05:43 12.80830 143.62035 19876 ft 435 kts 58°
2026-05-06 05:44 12.82422 143.64664 19459 ft 432 kts 58°
2026-05-06 05:44 12.83997 143.67268 19048 ft 429 kts 58°
2026-05-06 05:44 12.85562 143.69855 18639 ft 426 kts 58°
2026-05-06 05:44 12.87116 143.72427 18235 ft 423 kts 58°
2026-05-06 05:45 12.88660 143.74983 17828 ft 418 kts 58°
2026-05-06 05:45 12.90168 143.77481 17432 ft 415 kts 58°
2026-05-06 05:45 12.91694 143.80011 17032 ft 411 kts 58°
2026-05-06 05:45 12.93187 143.82486 16637 ft 408 kts 58°
2026-05-06 05:46 12.94667 143.84941 16247 ft 406 kts 58°
2026-05-06 05:46 12.96135 143.87376 15858 ft 403 kts 58°
2026-05-06 05:46 12.97614 143.89833 15463 ft 400 kts 58°
2026-05-06 05:46 12.99057 143.92229 15075 ft 396 kts 58°
2026-05-06 05:47 13.00489 143.94611 14690 ft 393 kts 59°
2026-05-06 05:47 13.01921 143.96989 14305 ft 391 kts 59°
2026-05-06 05:47 13.03346 143.99358 13922 ft 388 kts 59°
2026-05-06 05:47 13.04759 144.01709 13539 ft 386 kts 59°
2026-05-06 05:48 13.06166 144.04050 13157 ft 383 kts 59°
2026-05-06 05:48 13.07550 144.06352 12777 ft 380 kts 59°
2026-05-06 05:48 13.08932 144.08656 12399 ft 377 kts 59°
2026-05-06 05:48 13.10307 144.10947 12023 ft 375 kts 59°
2026-05-06 05:49 13.11652 144.13190 11657 ft 373 kts 59°
2026-05-06 05:49 13.13004 144.15442 11287 ft 369 kts 59°
2026-05-06 05:49 13.14355 144.17697 10948 ft 363 kts 59°
2026-05-06 05:49 13.15637 144.19836 10800 ft 348 kts 59°
2026-05-06 05:50 13.16889 144.21924 10631 ft 333 kts 59°
2026-05-06 05:50 13.18066 144.23891 10463 ft 321 kts 59°
2026-05-06 05:50 13.19227 144.25829 10294 ft 309 kts 59°
2026-05-06 05:50 13.20322 144.27661 10128 ft 298 kts 59°
2026-05-06 05:51 13.21391 144.29446 9871 ft 291 kts 60°
2026-05-06 05:51 13.22438 144.31200 9524 ft 288 kts 60°
2026-05-06 05:51 13.23487 144.32951 9183 ft 284 kts 60°
2026-05-06 05:51 13.24507 144.34665 8855 ft 280 kts 60°
2026-05-06 05:52 13.25553 144.36398 7988 ft 293 kts 60°
2026-05-06 05:52 13.26584 144.38121 7858 ft 274 kts 60°
2026-05-06 05:52 13.27559 144.39758 7529 ft 265 kts 60°
2026-05-06 05:52 13.28496 144.41330 7224 ft 257 kts 60°
2026-05-06 05:53 13.29425 144.42886 6927 ft 254 kts 61°
2026-05-06 05:53 13.30353 144.44444 6647 ft 253 kts 61°
2026-05-06 05:53 13.31270 144.45989 6366 ft 254 kts 61°
2026-05-06 05:53 13.32183 144.47523 6082 ft 252 kts 61°
2026-05-06 05:54 13.33078 144.49030 5688 ft 246 kts 62°
2026-05-06 05:54 13.33973 144.50537 5505 ft 247 kts 62°
2026-05-06 05:54 13.34853 144.52020 5347 ft 246 kts 62°
2026-05-06 05:54 13.35781 144.53468 5056 ft 241 kts 58°
2026-05-06 05:55 13.36682 144.54892 4753 ft 231 kts 62°
2026-05-06 05:55 13.37477 144.56297 4473 ft 223 kts 64°
2026-05-06 05:55 13.38201 144.57665 4200 ft 215 kts 65°
2026-05-06 05:55 13.38881 144.59010 3930 ft 209 kts 66°
2026-05-06 05:56 13.39523 144.60327 3669 ft 202 kts 66°
2026-05-06 05:56 13.40132 144.61600 3423 ft 196 kts 66°
2026-05-06 05:56 13.40713 144.62831 3187 ft 190 kts 67°
2026-05-06 05:56 13.41280 144.64047 2973 ft 183 kts 67°
2026-05-06 05:57 13.41806 144.65176 2846 ft 174 kts 68°
2026-05-06 05:57 13.42313 144.66298 2649 ft 172 kts 68°
2026-05-06 05:57 13.42829 144.67424 2553 ft 178 kts 68°
2026-05-06 05:57 13.43355 144.68568 2289 ft 176 kts 67°
2026-05-06 05:58 13.43866 144.69681 2007 ft 165 kts 67°
2026-05-06 05:58 13.44342 144.70702 1765 ft 149 kts 68°
2026-05-06 05:58 13.44758 144.71613 1541 ft 135 kts 68°
2026-05-06 05:58 13.45147 144.72463 1395 ft 129 kts 66°
2026-05-06 05:59 13.45536 144.73294 1267 ft 128 kts 68°
2026-05-06 05:59 13.45914 144.74127 1107 ft 128 kts 67°
2026-05-06 05:59 13.46298 144.74960 969 ft 127 kts 66°
2026-05-06 05:59 13.46680 144.75783 804 ft 131 kts 66°
2026-05-06 06:00 13.47060 144.76616 627 ft 126 kts 66°
2026-05-06 06:00 13.47445 144.77447 467 ft 126 kts 66°
2026-05-06 06:00 13.47838 144.78285 325 ft 131 kts 66°
2026-05-06 06:00 13.48212 144.79088 268 ft 121 kts 69°
2026-05-06 06:01 13.48521 144.79794 279 ft 63 kts 65°
2026-05-06 06:01 13.48631 144.80025 279 ft 35 kts 65°
2026-05-06 06:01 13.48750 144.80234 283 ft 33 kts 49°
2026-05-06 06:01 13.48908 144.80360 284 ft 13 kts 35°
2026-05-06 06:02 13.48986 144.80423 283 ft 13 kts 58°
2026-05-06 06:02 13.49042 144.80458 282 ft 7 kts 345°
2026-05-06 06:02 13.49060 144.80452 281 ft 3 kts 338°
2026-05-06 06:02 13.49095 144.80438 278 ft 5 kts 337°
2026-05-06 06:03 13.49103 144.80434 277 ft 0 kts 333°
2026-05-06 06:03 13.49105 144.80432 277 ft 0 kts 333°